Aswan, Egypt

6:27 AM EET on August 25, 2016 (GMT +0200)
Aswan International

Weather History for HESN - October, 2013

Change the Weather History Date:

Friday, October 25, 2013

  Actual Average Record
Temperature  
Mean Temperature 84 °F -  
Max Temperature 98 °F 84 °F 105 °F (2015)
Min Temperature 70 °F 62 °F 57 °F (2000)
Cooling Degree Days 19    
Growing Degree Days 34 (Base 50)    
Moisture  
Dew Point 41 °F    
Average Humidity 23    
Maximum Humidity 38    
Minimum Humidity 6    
Precipitation  
Precipitation 0.00 in 0.00 in - ()
Sea Level Pressure  
Sea Level Pressure 29.87 in    
Wind  
Wind Speed 6 mph ()    
Max Wind Speed 12 mph    
Max Gust Speed -    
Visibility 6.0 miles    
Events      
Averages and records for this station are not official NWS values.
T = Trace of Precipitation, MM = Missing Value Source: Averaged Metar Reports

Daily Weather History Graph

Daily Weather History Graph

Search for Another Location

Airport or City:

Trip Planner

Search our weather history database for the weather conditions in past years. The results will help you decide how hot, cold, wet, or windy it might be!

Date:

Astronomy

Oct. 25, 2013 Rise Set
Actual Time 5:50 AM EET 5:14 PM EET
Civil Twilight 5:27 AM EET 5:37 PM EET
Nautical Twilight 5:01 AM EET 6:03 PM EET
Astronomical Twilight 4:34 AM EET 6:30 PM EET
Moon 10:24 PM EET 11:06 AM EET
Length of Visible Light 12h 09m
Length of Day
11h 23m
Waning Gibbous, 65% of the Moon is Illuminated
Oct 25
Waning Gibbous
Oct 27
Last Quarter
Nov 3
New
Nov 10
First Quarter
Nov 17
Full

Hourly Weather History & Observations

Time (EET) Temp. Dew Point Humidity Pressure Visibility Wind Dir Wind Speed Gust Speed Precip Events Conditions
12:00 AM 78.8 °F 42.8 °F 28% 29.89 in - North 4.6 mph - N/A   Clear
2:00 AM 75 °F 42 °F 20% 29.86 in 6 mi North 5.8 mph - -  
2:00 AM 75.2 °F 42.8 °F 31% 29.92 in - North 5.8 mph - N/A   Clear
3:00 AM 75.2 °F 42.8 °F 31% 29.86 in - North 6.9 mph - N/A   Clear
4:00 AM 71.6 °F 42.8 °F 35% 29.89 in - North 5.8 mph - N/A   Clear
5:00 AM 71.6 °F 42.8 °F 35% 29.89 in - North 8.1 mph - N/A   Clear
6:00 AM 71.6 °F 42.8 °F 35% 29.89 in - North 8.1 mph - N/A   Clear
7:00 AM 71.6 °F 44.6 °F 38% 29.92 in - NNE 6.9 mph - N/A   Clear
8:00 AM 75 °F 47 °F 27% 29.90 in 6 mi North 11.5 mph - -  
8:00 AM 75.2 °F 48.2 °F 38% 29.92 in - North 11.5 mph - N/A   Clear
9:00 AM 80.6 °F 46.4 °F 30% 29.92 in - North 6.9 mph - N/A   Clear
10:00 AM 84.2 °F 44.6 °F 25% 29.92 in - North 6.9 mph - N/A   Clear
11:00 AM 89.6 °F 44.6 °F 21% 29.89 in - North 5.8 mph - N/A   Clear
12:00 PM 91.4 °F 42.8 °F 18% 29.89 in - North 6.9 mph - N/A   Clear
1:00 PM 95.0 °F 37.4 °F 13% 29.86 in - NNW 3.5 mph - N/A   Clear
2:00 PM 98 °F 36 °F 6% 29.79 in 6 mi North 4.6 mph - -  
2:00 PM 96.8 °F 35.6 °F 12% 29.83 in - North 4.6 mph - N/A   Clear
3:00 PM 98.6 °F 37.4 °F 12% 29.83 in - NNW 3.5 mph - N/A   Clear
4:00 PM 96.8 °F 35.6 °F 12% 29.80 in - NNW 4.6 mph - N/A   Clear
5:00 PM 95.0 °F 35.6 °F 12% 29.80 in - North 6.9 mph - N/A   Clear
6:00 PM 91.4 °F 35.6 °F 14% 29.80 in - NNW 6.9 mph - N/A   Clear
7:00 PM 89.6 °F 35.6 °F 15% 29.83 in - North 5.8 mph - N/A   Clear
8:00 PM 86.0 °F 37.4 °F 18% 29.83 in - North 3.5 mph - N/A   Clear
9:00 PM 84.2 °F 37.4 °F 19% 29.86 in - NNW 6.9 mph - N/A   Clear
10:00 PM 80.6 °F 39.2 °F 23% 29.86 in - North 4.6 mph - N/A   Clear
11:00 PM 80.6 °F 39.2 °F 23% 29.86 in - NNW 6.9 mph - N/A   Clear